Time,TemperatureF,DewpointF,PressureIn,WindDirection,WindDirectionDegrees,WindSpeedMPH,WindSpeedGustMPH,Humidity,HourlyPrecipIn,Conditions,Clouds,dailyrainin,SoftwareType,DateUTC
2013-01-06 13:02:00,57.0,42.0,30.00,SSW,193,3.0,13.0,57,0.00,,,-99.99,,2013-01-06 21:02:00,
2013-01-06 13:12:00,57.0,42.0,30.00,SSW,193,3.0,13.0,57,0.00,,,-99.99,,2013-01-06 21:12:00,
2013-01-06 13:22:00,57.0,42.0,30.00,SSW,193,3.0,13.0,57,0.00,,,-99.99,,2013-01-06 21:22:00,
2013-01-06 13:53:00,55.0,45.0,29.97,WSW,240,1.0,5.0,68,0.00,,,-99.99,,2013-01-06 21:53:00,
2013-01-06 14:02:00,55.0,45.0,29.97,WSW,240,1.0,5.0,68,0.00,,,-99.99,,2013-01-06 22:02:00,
2013-01-06 14:12:00,55.0,45.0,29.97,WSW,240,1.0,5.0,68,0.00,,,-99.99,,2013-01-06 22:12:00,
2013-01-06 14:22:00,54.0,43.0,29.95,West,269,3.0,13.0,66,0.00,,,-99.99,,2013-01-06 22:22:00,
2013-01-06 14:33:00,54.0,43.0,29.95,West,269,3.0,13.0,66,0.00,,,-99.99,,2013-01-06 22:33:00,
2013-01-06 14:43:00,54.0,43.0,29.95,West,269,3.0,13.0,66,0.00,,,-99.99,,2013-01-06 22:43:00,
2013-01-06 14:52:00,54.0,45.0,29.95,South,190,1.0,6.0,72,0.00,,,-99.99,,2013-01-06 22:52:00,
2013-01-06 15:02:00,54.0,45.0,29.95,South,190,1.0,6.0,72,0.00,,,-99.99,,2013-01-06 23:02:00,
2013-01-06 15:12:00,54.0,45.0,29.95,South,190,1.0,6.0,72,0.00,,,-99.99,,2013-01-06 23:12:00,
2013-01-06 15:22:00,54.0,45.0,29.95,South,190,1.0,6.0,72,0.00,,,-99.99,,2013-01-06 23:22:00,
2013-01-06 15:33:00,55.0,46.0,29.94,SSW,207,0.0,3.0,72,0.00,,,-99.99,,2013-01-06 23:33:00,
2013-01-06 15:43:00,55.0,46.0,29.94,SSW,207,0.0,3.0,72,0.00,,,-99.99,,2013-01-06 23:43:00,
2013-01-06 15:53:00,55.0,46.0,29.94,SSW,207,0.0,3.0,72,0.00,,,-99.99,,2013-01-06 23:53:00,
2013-01-06 16:02:00,54.0,45.0,29.93,SSE,167,0.0,2.0,72,0.00,,,-99.99,,2013-01-07 00:02:00,
2013-01-06 16:12:00,54.0,45.0,29.93,SSE,167,0.0,2.0,72,0.00,,,-99.99,,2013-01-07 00:12:00,
2013-01-06 16:22:00,54.0,45.0,29.93,SSE,167,0.0,2.0,72,0.00,,,-99.99,,2013-01-07 00:22:00,
2013-01-06 16:32:00,54.0,45.0,29.92,SSE,165,0.0,5.0,72,0.00,,,-99.99,,2013-01-07 00:32:00,
2013-01-06 16:43:00,54.0,45.0,29.92,SSE,165,0.0,5.0,72,0.00,,,-99.99,,2013-01-07 00:43:00,
2013-01-06 16:53:00,54.0,45.0,29.92,SSE,165,0.0,5.0,72,0.00,,,-99.99,,2013-01-07 00:53:00,
2013-01-06 17:02:00,53.0,43.0,29.93,West,261,1.0,7.0,68,0.00,,,-99.99,,2013-01-07 01:02:00,
2013-01-06 17:12:00,53.0,43.0,29.93,West,261,1.0,7.0,68,0.00,,,-99.99,,2013-01-07 01:12:00,
2013-01-06 17:22:00,53.0,43.0,29.93,West,261,1.0,7.0,68,0.00,,,-99.99,,2013-01-07 01:22:00,
2013-01-06 17:32:00,53.0,43.0,29.93,West,261,1.0,7.0,68,0.00,,,-99.99,,2013-01-07 01:32:00,
2013-01-06 19:33:00,49.0,42.0,29.92,West,279,0.0,2.0,78,0.00,,,-99.99,,2013-01-07 03:33:00,
2013-01-06 19:43:00,49.0,42.0,29.92,West,279,0.0,2.0,78,0.00,,,-99.99,,2013-01-07 03:43:00,
2013-01-06 19:52:00,49.0,42.0,29.92,West,279,0.0,2.0,78,0.00,,,-99.99,,2013-01-07 03:52:00,
2013-01-06 20:02:00,49.0,43.0,29.91,NNE,15,0.0,2.0,79,0.00,,,-99.99,,2013-01-07 04:02:00,
2013-01-06 20:12:00,49.0,43.0,29.91,NNE,15,0.0,2.0,79,0.00,,,-99.99,,2013-01-07 04:12:00,
2013-01-06 20:22:00,49.0,43.0,29.91,NNE,15,0.0,2.0,79,0.00,,,-99.99,,2013-01-07 04:22:00,
2013-01-06 20:32:00,48.0,42.0,29.91,NNE,15,0.0,1.0,79,0.00,,,-99.99,,2013-01-07 04:32:00,
2013-01-06 20:42:00,48.0,42.0,29.91,NNE,15,0.0,1.0,79,0.00,,,-99.99,,2013-01-07 04:42:00,
2013-01-06 20:52:00,48.0,42.0,29.91,NNE,15,0.0,1.0,79,0.00,,,-99.99,,2013-01-07 04:52:00,
2013-01-06 21:02:00,47.0,41.0,29.91,NNE,14,1.0,5.0,80,0.00,,,-99.99,,2013-01-07 05:02:00,
2013-01-06 21:12:00,47.0,41.0,29.91,NNE,14,1.0,5.0,80,0.00,,,-99.99,,2013-01-07 05:12:00,
2013-01-06 21:22:00,47.0,41.0,29.91,NNE,14,1.0,5.0,80,0.00,,,-99.99,,2013-01-07 05:22:00,
2013-01-06 21:32:00,46.0,41.0,29.91,NNE,14,0.0,1.0,82,0.00,,,-99.99,,2013-01-07 05:32:00,
2013-01-06 21:43:00,46.0,41.0,29.91,NNE,14,0.0,1.0,82,0.00,,,-99.99,,2013-01-07 05:43:00,
2013-01-06 21:52:00,46.0,41.0,29.91,NNE,14,0.0,1.0,82,0.00,,,-99.99,,2013-01-07 05:52:00,
2013-01-06 22:02:00,46.0,41.0,29.92,NNE,14,1.0,5.0,83,0.00,,,-99.99,,2013-01-07 06:02:00,
2013-01-06 22:12:00,46.0,41.0,29.92,NNE,14,1.0,5.0,83,0.00,,,-99.99,,2013-01-07 06:12:00,
2013-01-06 22:22:00,46.0,41.0,29.92,NNE,14,1.0,5.0,83,0.00,,,-99.99,,2013-01-07 06:22:00,
2013-01-06 22:32:00,46.0,41.0,29.92,NNE,14,0.0,1.0,82,0.00,,,-99.99,,2013-01-07 06:32:00,
2013-01-06 22:42:00,46.0,41.0,29.92,NNE,14,0.0,1.0,82,0.00,,,-99.99,,2013-01-07 06:42:00,
2013-01-06 22:52:00,46.0,41.0,29.92,NNE,14,0.0,1.0,82,0.00,,,-99.99,,2013-01-07 06:52:00,
2013-01-06 23:02:00,46.0,41.0,29.92,NNE,14,0.0,1.0,82,0.00,,,-99.99,,2013-01-07 07:02:00,
2013-01-06 23:33:00,45.0,40.0,29.92,NE,44,1.0,4.0,84,0.00,,,-99.99,,2013-01-07 07:33:00,
2013-01-06 23:42:00,45.0,40.0,29.92,NE,44,1.0,4.0,84,0.00,,,-99.99,,2013-01-07 07:42:00,
2013-01-06 23:52:00,45.0,40.0,29.92,NE,44,1.0,4.0,84,0.00,,,-99.99,,2013-01-07 07:52:00,